Lake Sonoma Weather Center

Moon Phase Calendar



Lake Sonoma Water Level
Online Cameras

 


      

Current Conditions in Cloverdale
4/19/2024 6:11:36 AM

50°F
Feels Like 50
Clouds
Humidity
93%
Pressure
29.94"
Wind
1 mph (N)
Dew Point
48°F
UV Index
0/10 (Low)
Visibility
6 mi

Hourly Forecast

Date & Time Fri, Apr 19
6:00 AM
Fri, Apr 19
7:00 AM
Fri, Apr 19
8:00 AM
Fri, Apr 19
9:00 AM
Fri, Apr 19
10:00 AM
Fri, Apr 19
11:00 AM
Fri, Apr 19
12:00 PM
Fri, Apr 19
1:00 PM
Fri, Apr 19
2:00 PM
Fri, Apr 19
3:00 PM
Fri, Apr 19
4:00 PM
Fri, Apr 19
5:00 PM
Fri, Apr 19
6:00 PM
Fri, Apr 19
7:00 PM
Fri, Apr 19
8:00 PM
Fri, Apr 19
9:00 PM
Fri, Apr 19
10:00 PM
Fri, Apr 19
11:00 PM
Sat, Apr 20
12:00 AM
Sat, Apr 20
1:00 AM
Sat, Apr 20
2:00 AM
Sat, Apr 20
3:00 AM
Sat, Apr 20
4:00 AM
Sat, Apr 20
5:00 AM
Sat, Apr 20
6:00 AM
Sat, Apr 20
7:00 AM
Sat, Apr 20
8:00 AM
Sat, Apr 20
9:00 AM
Sat, Apr 20
10:00 AM
Sat, Apr 20
11:00 AM
Sat, Apr 20
12:00 PM
Sat, Apr 20
1:00 PM
Sat, Apr 20
2:00 PM
Sat, Apr 20
3:00 PM
Sat, Apr 20
4:00 PM
Sat, Apr 20
5:00 PM
Sat, Apr 20
6:00 PM
Sat, Apr 20
7:00 PM
Sat, Apr 20
8:00 PM
Sat, Apr 20
9:00 PM
Sat, Apr 20
10:00 PM
Sat, Apr 20
11:00 PM
Sun, Apr 21
12:00 AM
Sun, Apr 21
1:00 AM
Sun, Apr 21
2:00 AM
Sun, Apr 21
3:00 AM
Sun, Apr 21
4:00 AM
Sun, Apr 21
5:00 AM
Condition
Clouds

Clouds

Clouds

Clouds

Clouds

Clouds

Clear

Clear

Clear

Clear

Clear

Clear

Clear

Clear

Clear

Clouds

Clouds

Clouds

Clouds

Clouds

Clouds

Clouds

Clouds

Clouds

Clouds

Clouds

Clouds

Clouds

Clouds

Clouds

Clear

Clear

Clear

Clear

Clear

Clouds

Clouds

Clouds

Clouds

Clouds

Clouds

Clouds

Clouds

Clouds

Clouds

Clouds

Clouds

Clouds
Temperature 50°F50°F53°F58°F65°F73°F76°F78°F78°F78°F76°F74°F71°F66°F58°F56°F55°F54°F54°F54°F52°F51°F51°F51°F50°F50°F55°F61°F66°F70°F74°F75°F77°F76°F74°F72°F68°F61°F55°F52°F51°F50°F50°F50°F50°F49°F49°F48°F
Feels Like 50°F49°F52°F57°F65°F72°F75°F77°F78°F77°F76°F73°F71°F66°F57°F55°F53°F52°F52°F51°F49°F49°F48°F48°F48°F48°F53°F59°F65°F69°F72°F74°F75°F75°F73°F70°F66°F60°F53°F50°F49°F49°F49°F49°F48°F47°F46°F46°F
Cloudiness 100%100%90%75%60%44%4%2%0%0%0%0%1%1%4%21%37%47%100%100%87%71%72%77%96%53%38%30%24%20%0%0%1%3%8%18%48%48%52%51%49%43%95%87%58%43%35%29%
Visibility 6 mi6 mi6 mi6 mi6 mi6 mi6 mi6 mi6 mi6 mi6 mi6 mi6 mi6 mi6 mi6 mi6 mi6 mi6 mi6 mi6 mi6 mi6 mi6 mi6 mi6 mi6 mi6 mi6 mi6 mi6 mi6 mi6 mi6 mi6 mi6 mi6 mi6 mi6 mi6 mi6 mi6 mi6 mi6 mi6 mi6 mi6 mi6 mi
Precipitation 0%0%0%0%0%0%0%0%0%0%0%0%0%0%0%0%0%0%0%0%0%0%0%0%0%0%0%0%0%0%0%0%0%0%0%0%0%0%0%0%0%0%0%0%0%0%0%0%
Humidity 93%92%87%76%64%51%47%43%42%43%46%51%58%73%81%76%69%63%59%57%59%59%60%60%59%63%63%49%40%35%31%28%27%27%28%36%43%52%59%69%78%83%86%89%90%90%89%86%
Dew Point 48°F48°F49°F51°F53°F52°F53°F53°F52°F52°F53°F53°F54°F56°F50°F47°F43°F40°F39°F37°F36°F36°F36°F36°F35°F36°F41°F41°F40°F40°F40°F39°F39°F39°F38°F42°F43°F42°F40°F40°F43°F44°F45°F45°F45°F44°F44°F42°F
Pressure 29.94"29.94"29.94"29.94"29.94"29.94"29.91"29.91"29.91"29.88"29.88"29.91"29.91"29.91"29.91"29.94"29.94"29.94"29.94"29.97"29.97"29.97"29.97"30"30"30.03"30.06"30.03"30.06"30.06"30.06"30.06"30.06"30.06"30.03"30.03"30.06"30.06"30.09"30.12"30.12"30.12"30.12"30.12"30.12"30.09"30.09"30.09"
Wind Speed 1.6 mph2 mph1.6 mph0.2 mph0.9 mph2 mph2.6 mph2.7 mph3.3 mph4.5 mph6.2 mph4.6 mph3.3 mph2.4 mph1.3 mph2.1 mph2.9 mph3.2 mph2.6 mph2.8 mph2.7 mph3.8 mph3.7 mph4.2 mph4.6 mph4.4 mph4.4 mph4.7 mph4.8 mph4.5 mph4.5 mph5.2 mph5.8 mph7.3 mph8.5 mph7.4 mph6.9 mph6.7 mph6.2 mph6 mph5.6 mph5.6 mph5.6 mph5.5 mph5.3 mph5.2 mph5.3 mph5.5 mph
Wind
Direction
21°
NNE
348°
NNW
327°
NNW
331°
NNW
172°
S
207°
SSW
208°
SSW
200°
SSW
201°
SSW
216°
SW
227°
SW
237°
WSW
233°
SW
219°
SW
271°
W
339°
NNW
352°
N
11°
N
343°
NNW
333°
NNW
347°
NNW
343°
NNW

N
337°
NNW
353°
N
358°
N
338°
NNW
343°
NNW
330°
NNW
308°
NW
300°
WNW
300°
WNW
302°
WNW
308°
NW
306°
NW
305°
NW
308°
NW
314°
NW
327°
NNW
339°
NNW
345°
NNW
346°
NNW
344°
NNW
345°
NNW
349°
N
354°
N
356°
N
355°
N

Daily Forecast

Date High Low Precip. Humidity
Today
Apr 19

Clear
78 °F
50 °F
0%
43%
Saturday
Apr 20

Clear
77 °F
50 °F
0%
28%
Sunday
Apr 21

Clear
79 °F
48 °F
0%
44%
Monday
Apr 22

Clear
78 °F
49 °F
0%
43%
Tuesday
Apr 23

Clouds
61 °F
45 °F
0%
58%
Wednesday
Apr 24

Clouds
68 °F
43 °F
0%
42%
Thursday
Apr 25

Rain
47 °F
44 °F
100%
94%
Friday
Apr 26

Rain
55 °F
45 °F
100%
79%
Saturday
Apr 27

Clear
71 °F
43 °F
0%
47%
Sunday
Apr 28

Clouds
71 °F
42 °F
0%
42%
Monday
Apr 29

Clear
64 °F
38 °F
0%
36%
Tuesday
Apr 30

Clear
68 °F
38 °F
0%
42%
Wednesday
May 1

Clear
73 °F
43 °F
0%
38%
Thursday
May 2

Clouds
72 °F
51 °F
0%
40%
Friday
May 3

Clouds
66 °F
46 °F
0%
47%
Saturday
May 4

Rain
60 °F
45 °F
100%
70%

Temperature 8-14 Day Outlook



Precipitation 8-14 Day Outlook






About Us
Contact Us
Site Map
Search Site
Advertise With Us
   
Sonoma.USLakes.info
THE LAKE SONOMA WEBSITE

Copyright 2024, Lakes Online
Privacy    |    Legal